Terminal Aerodrome Forecast
Issued by NWS

Home | Current Version | Previous Version | Text Only | Print | Product List | Glossary On
Versions: 1 2 3 4 5 6 7 8 9 10 11 12 13 14 15
000
FTUS43 KUNR 042320
TAFGCC
TAF
KGCC 042320Z 0500/0524 16020G30KT P6SM SCT250
      TEMPO 0512/0516 BKN025=

USA.gov is the U.S. government's official web portal to all federal, state and local government web resources and services.